Skip Page Navigation
NASA JPL Caltech
NASA Logo - Jet Propulsion Laboratory + View the NASA Portal
+ Center for Near-Earth Object Studies
JPL Home Earth Solar System Stars & Galaxies Technology
JPL Solar System Dynamics
BODIES ORBITS EPHEMERIDES TOOLS PHYSICAL DATA DISCOVERY FAQ SITE MAP
JPL Small-Body Database Browser
Search: [ help ]  
(2019 ON3)
Classification: Apollo [NEO]          SPK-ID: 3843409
Ephemeris | Orbit Diagram | Orbital Elements | Mission Design | Physical Parameters | Close-Approach Data ]

[ hide orbit diagram ]

For accurate long-term ephemerides, please instead use our Horizons system.This orbit viewer was implemented using two-body methods, and hence should not be used for determining accurate long-term trajectories (over several years or decades) or planetary encounter circumstances.


Orbital Elements at Epoch 2458695.5 (2019-Jul-31.0) TDB
Reference: JPL 2 (heliocentric ecliptic J2000)
 Element Value Uncertainty (1-sigma)   Units 
e .5469788654489045 0.0016697  
a 1.80166109692539 0.0059718 au
q .8161905542057114 0.00030541 au
i 6.335643408955861 0.015329 deg
node 305.2405014191388 0.003752 deg
peri 296.7285620992724 0.016334 deg
M 18.9530647992745 0.11508 deg
tp 2458648.996565906277
(2019-Jun-14.49656591)
0.051272 TDB
period 883.2996906326786
2.42
4.3917
0.01202
d
yr
n .4075626922750803 0.0020264 deg/d
Q 2.787131639645068 0.0092382 au
  Orbit Determination Parameters
   # obs. used (total)      18  
   first obs. used      2019-07-30  
   last obs. used      2019-07-30  
   planetary ephem.      DE441  
   SB-pert. ephem.      SB441-N16  
   condition code      8  
   norm. resid. RMS      .54371  
   source      ORB  
   producer      Otto Matic  
   solution date      2021-Apr-15 21:30:34  

Additional Information
 Earth MOID = .000535233 au 
 Jupiter MOID = 2.28362 au 
 T_jup = 3.867 
[ show covariance matrix ]

Ephemeris | Orbit Diagram | Orbital Elements | Mission Design | Physical Parameters | Close-Approach Data ]

Physical Parameter Table
Parameter Symbol Value Units Sigma Reference Notes
absolute magnitude H 27.8   .35217 MPO473742 autocmod 2.6q

[ show close-approach data ]
Ephemeris | Orbit Diagram | Orbital Elements | Mission Design | Physical Parameters | Close-Approach Data ]
ABOUT SSD CREDITS/AWARDS PRIVACY/COPYRIGHT GLOSSARY LINKS
FirstGov 2021-May-15 09:29 UT
(server date/time)  
NASA Home Page
Site Manager:   Ryan S. Park
Webmaster  Alan B. Chamberlin